Regional Weather Roundup
Issued by NWS Charleston, WV

Home | Current Version | Previous Version | Text Only | Print | Product List | Glossary Off
Versions: 1 2 3 4 5 6 7 8 9 10 11 12 13 14 15 16 17 18 19 20 21 22 23 24 25 26 27 28 29 30 31 32 33 34 35 36 37 38 39 40 41 42 43 44 45 46 47 48 49

000
ASUS41 KRLX 020210
RWRRLX
West Virginia Regional Weather Roundup
National Weather Service Charleston WV
1000 PM EDT TUE SEP 01 2015

Note: "fair" indicates few or no clouds below 12,000 feet with no
significant weather and/or obstructions to visibility.

WVZ003-020300-
Northern Panhandle of West Virginia

CITY           SKY/WX    TMP DP  RH WIND       PRES   REMARKS
WHEELING       PTCLDY    77  66  68 CALM      30.12R
$$

WVZ009-020300-
Northwest West Virginia

CITY           SKY/WX    TMP DP  RH WIND       PRES   REMARKS
PARKERSBURG    PTCLDY    73  68  84 CALM      30.14R
$$

WVZ006-020300-
Western West Virginia

CITY           SKY/WX    TMP DP  RH WIND       PRES   REMARKS
HUNTINGTON     MOCLDY    74  69  85 CALM      30.11R
$$

WVZ015-020300-
West Central West Virginia

CITY           SKY/WX    TMP DP  RH WIND       PRES   REMARKS
CHARLESTON     MOCLDY    74  68  81 CALM      30.12R
$$

WVZ022-031-020300-
North Central West Virginia

CITY           SKY/WX    TMP DP  RH WIND       PRES   REMARKS
CLARKSBURG     CLEAR     75  66  73 CALM      30.13R
MORGANTOWN     PTCLDY    78  64  61 SE3       30.14R
$$

WVZ025-035-042-045-020300-
Southern West Virginia

CITY           SKY/WX    TMP DP  RH WIND       PRES   REMARKS
BECKLEY        PTCLDY    70  63  78 CALM      30.21R
LOGAN            N/A     75  68  78 CALM      30.16S HAZE
BLUEFIELD      PTCLDY    73  61  65 CALM      30.24R
LEWISBURG      CLOUDY    70  66  87 CALM      30.20F
$$

WVZ047-020300-
Northern Mountains of West Virginia

CITY           SKY/WX    TMP DP  RH WIND       PRES   REMARKS
ELKINS         MOCLDY    68  64  87 CALM      30.19R
$$

WVZ052-020300-
Eastern Panhandle of West Virginia

CITY           SKY/WX    TMP DP  RH WIND       PRES   REMARKS
MARTINSBURG    CLEAR     76  66  71 CALM      30.07R
PETERSBURG     PTCLDY    73  68  84 CALM      30.12S
$$


USA.gov is the U.S. government's official web portal to all federal, state and local government web resources and services.